Starlink 30295

operational
NORAD ID: 57683 Int'l Des: 2023-124 Owner: SPXS Country: US Constellation: starlink
LEOCIRCULAR

About Starlink 30295

Description loading...

Live Position

Loading 3D Globe...

Upcoming Passes

Altitude History

Altitude vs Time

uPlot chart will show altitude changes over time

Two-Line Element Set

1 57683U 23124W 25308.48120244 .00001245 00000-0 54139-4 0 9992
2 57683 53.1604 68.6522 0001176 76.1791 283.9341 15.30202055124397
Epoch: Nov 4, 2025 • Age: 12 hours

Current Status

Altitude 477.6 km
Velocity 7.63 km/s
Sub-Earth Point -7.08°S, 142.92°W
Launch Date Aug 22, 2023
Age 2.2 years
Type internet

Technical Details

Classification Payload
Mass 730.00 kg
Dry Mass 700.00 kg
Total Mass 730.00 kg
Length 0.30 m
Diameter 4.10 m
Span 29.00 m
Shape Box + pan
Manufacturer SPXS
Bus Type Starlink V2M
Phase Status In Orbit
Owner/State SPXS/US

Large Constellations

Loading constellations...